| time (UTC) | temp C | wind direction | speed KPH | gust KPH | rain 1hr cm | rain 24hr cm | rain mn cm | humidity % | barometer mb |
| 20260507064605 | 16 | 360 | 1.6 | 4.8 | 0.00 | 0.00 | 0.00 | 69 | 1010.3 |
| 20260507063059 | 15 | 164 | 1.6 | 8.0 | 0.00 | 0.00 | 0.00 | 72 | 1010.1 |
| 20260507061553 | 13 | 190 | 0.0 | 6.4 | 0.00 | 0.00 | 0.00 | 71 | 1010.2 |
| 20260507060051 | 13 | 257 | 0.0 | 6.4 | 0.00 | 0.00 | 0.00 | 72 | 1010.0 |
| 20260507054553 | 13 | 351 | 0.0 | 9.7 | 0.00 | 0.00 | 0.00 | 74 | 1009.9 |
| 20260507053048 | 13 | 166 | 4.8 | 9.7 | 0.00 | 0.00 | 0.00 | 73 | 1009.9 |
| 20260507051648 | 13 | 198 | 4.8 | 8.0 | 0.00 | 0.00 | 0.00 | 73 | 1009.9 |
| 20260507050046 | 13 | 287 | 0.0 | 4.8 | 0.00 | 0.05 | 0.00 | 75 | 1009.8 |
| 20260507044545 | 13 | 277 | 0.0 | 3.2 | 0.00 | 0.05 | 0.00 | 74 | 1009.7 |
| 20260507043042 | 13 | 241 | 0.0 | 3.2 | 0.00 | 0.05 | 0.00 | 73 | 1009.4 |
| 20260507041541 | 13 | 199 | 0.0 | 4.8 | 0.00 | 0.05 | 0.00 | 74 | 1009.3 |
| 20260507040040 | 14 | 146 | 1.6 | 3.2 | 0.00 | 0.05 | 0.00 | 74 | 1009.3 |
| 20260507034540 | 13 | 150 | 0.0 | 6.4 | 0.00 | 0.05 | 0.00 | 75 | 1009.0 |
| 20260507033037 | 13 | 154 | 0.0 | 3.2 | 0.00 | 0.05 | 0.00 | 77 | 1009.0 |
| 20260507031537 | 13 | 167 | 0.0 | 1.6 | 0.00 | 0.05 | 0.00 | 78 | 1009.0 |
| 20260507030036 | 13 | 167 | 0.0 | 1.6 | 0.00 | 0.05 | 0.00 | 77 | 1008.9 |
| 20260507024536 | 14 | 161 | 1.6 | 3.2 | 0.00 | 0.05 | 0.00 | 77 | 1008.9 |
| 20260507023035 | 14 | 318 | 0.0 | 3.2 | 0.00 | 0.05 | 0.00 | 77 | 1008.8 |
| 20260507021533 | 15 | 210 | 0.0 | 3.2 | 0.00 | 0.05 | 0.00 | 76 | 1008.9 |
| 20260507020041 | 15 | 318 | 0.0 | 3.2 | 0.00 | 0.05 | 0.00 | 76 | 1008.9 |
| 20260507014533 | 14 | 304 | 0.0 | 8.0 | 0.00 | 0.05 | 0.00 | 77 | 1008.9 |
| 20260507013045 | 14 | 279 | 0.0 | 3.2 | 0.00 | 0.05 | 0.00 | 80 | 1008.8 |
| 20260507011531 | 14 | 202 | 3.2 | 8.0 | 0.00 | 0.05 | 0.00 | 79 | 1008.8 |
| 20260507010036 | 14 | 200 | 3.2 | 9.7 | 0.00 | 0.05 | 0.00 | 80 | 1008.8 |
| 20260507004527 | 14 | 222 | 3.2 | 6.4 | 0.00 | 0.05 | 0.00 | 80 | 1008.9 |
| 20260507003027 | 15 | 279 | 0.0 | 3.2 | 0.00 | 0.05 | 0.00 | 78 | 1008.9 |
| 20260507001530 | 15 | 189 | 0.0 | 1.6 | 0.00 | 0.05 | 0.00 | 78 | 1008.9 |
| 20260507000027 | 14 | 294 | 1.6 | 4.8 | 0.00 | 0.05 | 0.00 | 79 | 1009.0 |
| 20260506234531 | 14 | 288 | 1.6 | 4.8 | 0.00 | 0.05 | 0.00 | 82 | 1009.0 |
| 20260506233027 | 15 | 296 | 0.0 | 3.2 | 0.00 | 0.05 | 0.00 | 81 | 1009.0 |
| 20260506231524 | 15 | 101 | 0.0 | 1.6 | 0.00 | 0.05 | 0.00 | 77 | 1008.9 |
| 20260506230021 | 16 | 76 | 3.2 | 8.0 | 0.00 | 0.05 | 0.00 | 74 | 1008.8 |
| 20260506224515 | 16 | 110 | 0.0 | 6.4 | 0.00 | 0.05 | 0.00 | 72 | 1008.8 |
| 20260506223014 | 16 | 236 | 1.6 | 9.7 | 0.00 | 0.05 | 0.00 | 72 | 1009.0 |
| 20260506221512 | 16 | 136 | 6.4 | 12.9 | 0.00 | 0.05 | 0.00 | 72 | 1008.8 |
| 20260506220021 | 16 | 107 | 6.4 | 14.5 | 0.00 | 0.13 | 0.05 | 72 | 1008.8 |
| 20260506214510 | 16 | 116 | 3.2 | 8.0 | 0.00 | 0.13 | 0.05 | 73 | 1009.0 |
| 20260506213008 | 16 | 105 | 3.2 | 12.9 | 0.00 | 0.13 | 0.05 | 74 | 1009.0 |
| 20260506211513 | 16 | 87 | 1.6 | 12.9 | 0.00 | 0.13 | 0.05 | 75 | 1009.0 |
| 20260506210012 | 15 | 138 | 4.8 | 16.1 | 0.00 | 0.25 | 0.05 | 79 | 1008.8 |
| 20260506204506 | 15 | 96 | 1.6 | 4.8 | 0.00 | 0.25 | 0.05 | 82 | 1009.0 |
| 20260506203006 | 15 | 318 | 1.6 | 3.2 | 0.00 | 0.25 | 0.05 | 82 | 1009.0 |
| 20260506201507 | 15 | 242 | 1.6 | 4.8 | 0.00 | 0.25 | 0.05 | 81 | 1008.8 |
| 20260506200010 | 15 | 243 | 0.0 | 4.8 | 0.00 | 0.51 | 0.05 | 80 | 1008.8 |
| 20260506194504 | 15 | 267 | 0.0 | 4.8 | 0.00 | 0.51 | 0.05 | 80 | 1008.6 |
| 20260506193004 | 15 | 262 | 1.6 | 6.4 | 0.00 | 0.51 | 0.05 | 79 | 1008.6 |
| 20260506191503 | 15 | 268 | 1.6 | 6.4 | 0.00 | 0.51 | 0.05 | 80 | 1008.3 |
| 20260506190004 | 15 | 315 | 0.0 | 3.2 | 0.00 | 0.53 | 0.05 | 82 | 1008.1 |
| 20260506184504 | 16 | 285 | 0.0 | 4.8 | 0.00 | 0.53 | 0.05 | 81 | 1007.9 |
| 20260506183005 | 16 | 296 | 0.0 | 3.2 | 0.00 | 0.53 | 0.05 | 81 | 1007.7 |
| 20260506181503 | 16 | 303 | 1.6 | 3.2 | 0.00 | 0.53 | 0.05 | 80 | 1007.6 |
| 20260506180000 | 16 | 288 | 1.6 | 4.8 | 0.00 | 0.84 | 0.05 | 80 | 1007.5 |
| 20260506174601 | 17 | 300 | 3.2 | 9.7 | 0.00 | 0.84 | 0.05 | 76 | 1007.3 |
| 20260506173112 | 18 | 113 | 8.0 | 14.5 | 0.00 | 0.84 | 0.05 | 70 | 1007.1 |
| 20260506171610 | 17 | 93 | 0.0 | 4.8 | 0.00 | 0.84 | 0.05 | 74 | 1007.0 |
| 20260506170108 | 17 | 127 | 0.0 | 4.8 | 0.00 | 0.84 | 0.05 | 78 | 1006.9 |
| 20260506164618 | 17 | 131 | 1.6 | 3.2 | 0.00 | 0.84 | 0.05 | 78 | 1006.8 |
| 20260506163105 | 17 | 116 | 0.0 | 8.0 | 0.00 | 0.84 | 0.05 | 77 | 1007.0 |
| 20260506161557 | 19 | 101 | 3.2 | 6.4 | 0.00 | 0.84 | 0.05 | 70 | 1006.9 |
| 20260506160107 | 19 | 92 | 3.2 | 11.3 | 0.00 | 0.84 | 0.05 | 64 | 1006.8 |
| 20260506154556 | 20 | 343 | 3.2 | 8.0 | 0.00 | 0.84 | 0.05 | 63 | 1006.9 |
| 20260506153055 | 20 | 355 | 1.6 | 12.9 | 0.00 | 0.84 | 0.05 | 66 | 1006.8 |
| 20260506151553 | 20 | 205 | 8.0 | 19.3 | 0.00 | 0.84 | 0.05 | 67 | 1006.8 |
| 20260506150053 | 20 | 161 | 11.3 | 19.3 | 0.00 | 0.84 | 0.05 | 67 | 1006.6 |
| 20260506144550 | 20 | 142 | 4.8 | 19.3 | 0.00 | 0.84 | 0.05 | 68 | 1006.7 |
| 20260506143050 | 20 | 98 | 4.8 | 14.5 | 0.00 | 0.84 | 0.05 | 66 | 1006.7 |
| 20260506141606 | 19 | 63 | 6.4 | 20.9 | 0.00 | 0.84 | 0.05 | 67 | 1006.7 |
| 20260506140048 | 20 | 114 | 11.3 | 20.9 | 0.00 | 0.84 | 0.05 | 66 | 1006.7 |
| 20260506134544 | 20 | 107 | 8.0 | 22.5 | 0.00 | 0.84 | 0.05 | 64 | 1007.1 |
| 20260506133042 | 20 | 98 | 4.8 | 22.5 | 0.00 | 0.84 | 0.05 | 67 | 1007.2 |
| 20260506131543 | 20 | 117 | 12.9 | 27.4 | 0.00 | 0.84 | 0.05 | 65 | 1007.5 |
| 20260506130040 | 20 | 140 | 12.9 | 24.1 | 0.00 | 0.84 | 0.05 | 67 | 1007.6 |
| 20260506124538 | 18 | 154 | 12.9 | 22.5 | 0.00 | 0.84 | 0.05 | 69 | 1007.5 |
| 20260506123040 | 18 | 90 | 12.9 | 24.1 | 0.00 | 0.84 | 0.05 | 70 | 1007.6 |
| 20260506121532 | 18 | 78 | 9.7 | 24.1 | 0.00 | 0.84 | 0.05 | 71 | 1007.6 |
| 20260506120046 | 18 | 100 | 11.3 | 24.1 | 0.00 | 0.84 | 0.05 | 71 | 1007.7 |
| 20260506114527 | 17 | 90 | 3.2 | 12.9 | 0.00 | 0.84 | 0.05 | 75 | 1007.8 |
| 20260506113027 | 17 | 109 | 8.0 | 17.7 | 0.00 | 0.84 | 0.05 | 76 | 1007.9 |
| 20260506111525 | 17 | 144 | 12.9 | 25.7 | 0.00 | 0.84 | 0.05 | 75 | 1008.0 |
| 20260506110026 | 17 | 101 | 11.3 | 19.3 | 0.00 | 0.84 | 0.05 | 77 | 1008.2 |
| 20260506104524 | 17 | 83 | 4.8 | 12.9 | 0.00 | 0.84 | 0.05 | 77 | 1008.6 |
| 20260506103029 | 17 | 135 | 3.2 | 19.3 | 0.00 | 0.84 | 0.05 | 77 | 1008.5 |
| 20260506101523 | 17 | 194 | 8.0 | 22.5 | 0.00 | 0.84 | 0.05 | 75 | 1008.5 |
| 20260506100023 | 17 | 158 | 4.8 | 27.4 | 0.00 | 0.84 | 0.05 | 77 | 1008.3 |
| 20260506094531 | 17 | 106 | 11.3 | 25.7 | 0.00 | 0.84 | 0.05 | 77 | 1008.3 |
| 20260506093039 | 17 | 141 | 12.9 | 25.7 | 0.00 | 0.84 | 0.05 | 76 | 1008.2 |
| 20260506091518 | 17 | 71 | 3.2 | 19.3 | 0.00 | 0.84 | 0.05 | 79 | 1008.2 |
| 20260506090018 | 16 | 163 | 8.0 | 17.7 | 0.00 | 0.84 | 0.05 | 79 | 1008.2 |
| 20260506084517 | 17 | 90 | 8.0 | 17.7 | 0.00 | 0.84 | 0.05 | 78 | 1008.0 |
| 20260506083015 | 17 | 90 | 4.8 | 16.1 | 0.00 | 0.84 | 0.05 | 81 | 1007.9 |
| 20260506081510 | 16 | 91 | 9.7 | 24.1 | 0.00 | 0.84 | 0.05 | 81 | 1007.8 |
| 20260506073105 | 15 | 94 | 9.7 | 16.1 | 0.00 | 0.84 | 0.05 | 89 | 1007.7 |
| 20260506071602 | 14 | 93 | 4.8 | 11.3 | 0.00 | 0.84 | 0.05 | 94 | 1007.8 |
| 20260506070117 | 13 | 61 | 6.4 | 14.5 | 0.00 | 1.07 | 0.05 | 94 | 1007.8 |